| time (UTC) | temp C | wind direction | speed KPH | gust KPH | rain 1hr cm | rain 24hr cm | rain mn cm | humidity % | barometer mb |
| 20260902014530 | 31 | 320 | 1.6 | 4.8 | 0.00 | 0.00 | 0.00 | 47 | 1014.9 |
| 20260902014024 | 31 | 320 | 0.0 | 8.0 | 0.00 | 0.00 | 0.00 | 47 | 1014.9 |
| 20260902013519 | 31 | 308 | 3.2 | 8.0 | 0.00 | 0.00 | 0.00 | 46 | 1014.9 |
| 20260902013013 | 31 | 308 | 1.6 | 4.8 | 0.00 | 0.00 | 0.00 | 47 | 1014.9 |
| 20260902012528 | 31 | 303 | 1.6 | 4.8 | 0.00 | 0.00 | 0.00 | 46 | 1015.0 |
| 20260902012022 | 31 | 302 | 1.6 | 6.4 | 0.00 | 0.00 | 0.00 | 45 | 1015.0 |
| 20260902011517 | 32 | 302 | 1.6 | 11.3 | 0.00 | 0.00 | 0.00 | 44 | 1015.0 |
| 20260902011016 | 32 | 295 | 3.2 | 11.3 | 0.00 | 0.00 | 0.00 | 43 | 1014.8 |
| 20260902010531 | 32 | 310 | 3.2 | 8.0 | 0.00 | 0.00 | 0.00 | 42 | 1014.8 |
| 20260902010038 | 32 | 317 | 1.6 | 4.8 | 0.00 | 0.00 | 0.00 | 40 | 1014.7 |
| 20260902005517 | 32 | 317 | 1.6 | 6.4 | 0.00 | 0.00 | 0.00 | 40 | 1014.7 |
| 20260902005031 | 32 | 317 | 3.2 | 11.3 | 0.00 | 0.00 | 0.00 | 38 | 1014.8 |
| 20260902004525 | 32 | 293 | 4.8 | 11.3 | 0.00 | 0.00 | 0.00 | 39 | 1014.7 |
| 20260902004019 | 32 | 320 | 3.2 | 11.3 | 0.00 | 0.00 | 0.00 | 37 | 1014.7 |
| 20260902003518 | 33 | 317 | 3.2 | 11.3 | 0.00 | 0.00 | 0.00 | 37 | 1014.8 |
| 20260902003032 | 33 | 315 | 3.2 | 8.0 | 0.00 | 0.00 | 0.00 | 37 | 1014.9 |
| 20260902002526 | 32 | 320 | 1.6 | 12.9 | 0.00 | 0.00 | 0.00 | 38 | 1015.0 |
| 20260902002020 | 33 | 318 | 3.2 | 12.9 | 0.00 | 0.00 | 0.00 | 37 | 1015.0 |
| 20260902001514 | 33 | 310 | 3.2 | 8.0 | 0.00 | 0.00 | 0.00 | 38 | 1015.0 |
| 20260902001029 | 33 | 351 | 3.2 | 12.9 | 0.00 | 0.00 | 0.00 | 39 | 1015.1 |
| 20260902000523 | 33 | 288 | 3.2 | 12.9 | 0.00 | 0.00 | 0.00 | 38 | 1015.0 |
| 20260902000029 | 33 | 302 | 4.8 | 16.1 | 0.00 | 0.00 | 0.00 | 37 | 1015.1 |
| 20260901235533 | 33 | 287 | 6.4 | 16.1 | 0.00 | 0.00 | 0.00 | 37 | 1015.1 |
| 20260901235026 | 33 | 300 | 4.8 | 8.0 | 0.00 | 0.00 | 0.00 | 38 | 1015.2 |
| 20260901234520 | 33 | 302 | 3.2 | 8.0 | 0.00 | 0.00 | 0.00 | 39 | 1015.2 |
| 20260901234014 | 33 | 300 | 4.8 | 8.0 | 0.00 | 0.00 | 0.00 | 38 | 1015.2 |
| 20260901233528 | 33 | 308 | 3.2 | 9.7 | 0.00 | 0.00 | 0.00 | 39 | 1015.2 |
| 20260901233022 | 33 | 321 | 3.2 | 9.7 | 0.00 | 0.00 | 0.00 | 39 | 1015.3 |
| 20260901232516 | 33 | 356 | 4.8 | 9.7 | 0.00 | 0.00 | 0.00 | 39 | 1015.4 |
| 20260901232014 | 33 | 298 | 3.2 | 11.3 | 0.00 | 0.00 | 0.00 | 40 | 1015.4 |
| 20260901231528 | 34 | 294 | 4.8 | 11.3 | 0.00 | 0.00 | 0.00 | 41 | 1015.3 |
| 20260901231023 | 33 | 321 | 3.2 | 9.7 | 0.00 | 0.00 | 0.00 | 41 | 1015.6 |
| 20260901230517 | 33 | 293 | 1.6 | 6.4 | 0.00 | 0.00 | 0.00 | 41 | 1015.4 |
| 20260901230044 | 33 | 311 | 3.2 | 8.0 | 0.00 | 0.00 | 0.00 | 40 | 1015.5 |
| 20260901225522 | 33 | 309 | 3.2 | 8.0 | 0.00 | 0.00 | 0.00 | 40 | 1015.5 |
| 20260901225017 | 33 | 296 | 1.6 | 16.1 | 0.00 | 0.00 | 0.00 | 40 | 1015.6 |
| 20260901224531 | 34 | 290 | 6.4 | 16.1 | 0.00 | 0.00 | 0.00 | 41 | 1015.6 |
| 20260901224030 | 33 | 273 | 6.4 | 12.9 | 0.00 | 0.00 | 0.00 | 40 | 1015.7 |
| 20260901223526 | 33 | 352 | 3.2 | 9.7 | 0.00 | 0.00 | 0.00 | 42 | 1015.6 |
| 20260901223021 | 33 | 5 | 3.2 | 11.3 | 0.00 | 0.00 | 0.00 | 42 | 1015.8 |
| 20260901222517 | 33 | 11 | 6.4 | 11.3 | 0.00 | 0.00 | 0.00 | 42 | 1015.8 |
| 20260901222032 | 33 | 23 | 6.4 | 11.3 | 0.00 | 0.00 | 0.00 | 42 | 1015.8 |
| 20260901221527 | 33 | 1 | 6.4 | 11.3 | 0.00 | 0.00 | 0.00 | 42 | 1015.8 |
| 20260901221022 | 33 | 4 | 1.6 | 12.9 | 0.00 | 0.00 | 0.00 | 44 | 1015.9 |
| 20260901220521 | 32 | 43 | 6.4 | 14.5 | 0.00 | 0.00 | 0.00 | 43 | 1015.9 |
| 20260901220028 | 33 | 9 | 6.4 | 14.5 | 0.00 | 0.00 | 0.00 | 42 | 1016.1 |
| 20260901215528 | 33 | 9 | 4.8 | 12.9 | 0.00 | 0.00 | 0.00 | 43 | 1016.2 |
| 20260901215023 | 32 | 68 | 6.4 | 12.9 | 0.00 | 0.00 | 0.00 | 43 | 1016.3 |
| 20260901214516 | 32 | 40 | 6.4 | 12.9 | 0.00 | 0.00 | 0.00 | 44 | 1016.4 |
| 20260901214031 | 33 | 19 | 4.8 | 11.3 | 0.00 | 0.00 | 0.00 | 43 | 1016.4 |
| 20260901213525 | 33 | 354 | 4.8 | 12.9 | 0.00 | 0.00 | 0.00 | 42 | 1016.5 |
| 20260901213019 | 33 | 2 | 3.2 | 11.3 | 0.00 | 0.00 | 0.00 | 41 | 1016.6 |
| 20260901212518 | 33 | 336 | 4.8 | 8.0 | 0.00 | 0.00 | 0.00 | 43 | 1016.7 |
| 20260901212031 | 32 | 335 | 3.2 | 9.7 | 0.00 | 0.00 | 0.00 | 42 | 1016.7 |
| 20260901211526 | 33 | 335 | 4.8 | 11.3 | 0.00 | 0.00 | 0.00 | 42 | 1016.9 |
| 20260901211021 | 33 | 323 | 3.2 | 9.7 | 0.00 | 0.00 | 0.00 | 41 | 1016.8 |
| 20260901210516 | 33 | 318 | 3.2 | 14.5 | 0.00 | 0.00 | 0.00 | 41 | 1016.9 |
| 20260901210042 | 33 | 6 | 3.2 | 14.5 | 0.00 | 0.00 | 0.00 | 42 | 1016.9 |
| 20260901205523 | 33 | 277 | 4.8 | 11.3 | 0.00 | 0.18 | 0.00 | 40 | 1017.1 |
| 20260901205022 | 33 | 277 | 4.8 | 11.3 | 0.00 | 0.18 | 0.00 | 42 | 1017.1 |
| 20260901204518 | 32 | 225 | 4.8 | 9.7 | 0.00 | 0.18 | 0.00 | 43 | 1017.2 |
| 20260901203515 | 33 | 310 | 1.6 | 11.3 | 0.00 | 0.18 | 0.00 | 41 | 1017.3 |
| 20260901203030 | 32 | 352 | 1.6 | 4.8 | 0.00 | 0.18 | 0.00 | 42 | 1017.4 |
| 20260901202526 | 32 | 352 | 1.6 | 6.4 | 0.00 | 0.18 | 0.00 | 42 | 1017.5 |
| 20260901202022 | 32 | 352 | 3.2 | 6.4 | 0.00 | 0.18 | 0.00 | 42 | 1017.7 |
| 20260901201520 | 33 | 300 | 3.2 | 9.7 | 0.00 | 0.18 | 0.00 | 40 | 1017.7 |
| 20260901201015 | 33 | 343 | 1.6 | 9.7 | 0.00 | 0.18 | 0.00 | 41 | 1017.7 |
| 20260901200529 | 33 | 314 | 3.2 | 9.7 | 0.00 | 0.18 | 0.00 | 40 | 1017.7 |
| 20260901200036 | 32 | 337 | 3.2 | 6.4 | 0.00 | 0.18 | 0.00 | 43 | 1017.8 |
| 20260901195516 | 32 | 292 | 1.6 | 9.7 | 0.00 | 0.38 | 0.00 | 43 | 1018.0 |
| 20260901195030 | 33 | 291 | 1.6 | 11.3 | 0.00 | 0.38 | 0.00 | 40 | 1018.0 |
| 20260901194525 | 33 | 298 | 4.8 | 11.3 | 0.00 | 0.38 | 0.00 | 41 | 1018.0 |
| 20260901194019 | 32 | 354 | 1.6 | 6.4 | 0.00 | 0.38 | 0.00 | 42 | 1018.1 |
| 20260901193518 | 31 | 354 | 1.6 | 6.4 | 0.00 | 0.38 | 0.00 | 42 | 1018.2 |
| 20260901193012 | 32 | 354 | 3.2 | 8.0 | 0.00 | 0.38 | 0.00 | 44 | 1018.2 |
| 20260901192526 | 31 | 24 | 3.2 | 8.0 | 0.00 | 0.38 | 0.00 | 45 | 1018.3 |
| 20260901192021 | 32 | 102 | 1.6 | 4.8 | 0.00 | 0.38 | 0.00 | 45 | 1018.3 |
| 20260901191516 | 31 | 103 | 1.6 | 6.4 | 0.00 | 0.38 | 0.00 | 46 | 1018.4 |
| 20260901191031 | 31 | 103 | 3.2 | 6.4 | 0.00 | 0.38 | 0.00 | 45 | 1018.4 |
| 20260901190527 | 31 | 104 | 3.2 | 12.9 | 0.00 | 0.38 | 0.00 | 44 | 1018.4 |
| 20260901190039 | 31 | 107 | 6.4 | 14.5 | 0.00 | 0.38 | 0.00 | 44 | 1018.5 |
| 20260901185519 | 31 | 38 | 4.8 | 9.7 | 0.00 | 1.02 | 0.00 | 46 | 1018.7 |
| 20260901185014 | 31 | 29 | 3.2 | 6.4 | 0.00 | 1.02 | 0.00 | 45 | 1018.7 |
| 20260901184530 | 30 | 267 | 3.2 | 6.4 | 0.00 | 1.02 | 0.00 | 45 | 1018.7 |
| 20260901184026 | 30 | 269 | 3.2 | 6.4 | 0.00 | 1.02 | 0.00 | 46 | 1018.8 |
| 20260901183522 | 31 | 270 | 3.2 | 12.9 | 0.00 | 1.02 | 0.00 | 45 | 1018.8 |
| 20260901183018 | 32 | 270 | 3.2 | 12.9 | 0.00 | 1.02 | 0.00 | 47 | 1018.9 |
| 20260901182516 | 32 | 275 | 4.8 | 12.9 | 0.00 | 1.02 | 0.00 | 46 | 1018.9 |
| 20260901182032 | 32 | 277 | 3.2 | 11.3 | 0.00 | 1.02 | 0.00 | 47 | 1018.9 |
| 20260901181527 | 31 | 325 | 3.2 | 8.0 | 0.00 | 1.02 | 0.00 | 45 | 1018.9 |
| 20260901181023 | 31 | 325 | 1.6 | 8.0 | 0.00 | 1.02 | 0.00 | 46 | 1018.9 |
| 20260901180517 | 31 | 325 | 1.6 | 8.0 | 0.00 | 1.02 | 0.00 | 47 | 1018.9 |
| 20260901180045 | 31 | 325 | 3.2 | 8.0 | 0.00 | 1.02 | 0.00 | 48 | 1019.0 |
| 20260901175525 | 30 | 8 | 3.2 | 8.0 | 0.00 | 1.93 | 0.00 | 49 | 1019.1 |
| 20260901175022 | 30 | 83 | 3.2 | 6.4 | 0.00 | 1.93 | 0.00 | 50 | 1019.2 |
| 20260901174522 | 30 | 84 | 4.8 | 6.4 | 0.00 | 1.93 | 0.00 | 48 | 1019.1 |
| 20260901174018 | 30 | 88 | 1.6 | 6.4 | 0.00 | 1.93 | 0.00 | 49 | 1019.2 |
| 20260901173532 | 30 | 88 | 1.6 | 11.3 | 0.00 | 1.93 | 0.00 | 50 | 1019.1 |
| 20260901173027 | 29 | 88 | 4.8 | 11.3 | 0.00 | 1.93 | 0.00 | 52 | 1019.1 |
| 20260901172522 | 29 | 54 | 4.8 | 11.3 | 0.00 | 1.93 | 0.00 | 50 | 1019.1 |
| 20260901172016 | 28 | 98 | 3.2 | 6.4 | 0.00 | 1.93 | 0.00 | 51 | 1019.2 |
| 20260901171531 | 28 | 97 | 1.6 | 6.4 | 0.00 | 1.93 | 0.00 | 53 | 1019.1 |
| 20260901171031 | 28 | 97 | 3.2 | 6.4 | 0.00 | 1.93 | 0.00 | 54 | 1019.2 |
| 20260901170525 | 28 | 98 | 4.8 | 6.4 | 0.00 | 1.93 | 0.00 | 54 | 1019.2 |
| 20260901170033 | 28 | 99 | 3.2 | 6.4 | 0.00 | 1.93 | 0.00 | 54 | 1019.1 |
| 20260901165513 | 28 | 98 | 3.2 | 11.3 | 0.00 | 1.93 | 0.00 | 57 | 1019.2 |
| 20260901165028 | 27 | 98 | 6.4 | 11.3 | 0.00 | 1.93 | 0.00 | 56 | 1019.2 |
| 20260901164523 | 27 | 122 | 6.4 | 9.7 | 0.00 | 1.93 | 0.00 | 57 | 1019.2 |
| 20260901164019 | 27 | 135 | 3.2 | 9.7 | 0.00 | 1.93 | 0.00 | 59 | 1019.2 |
| 20260901163518 | 27 | 87 | 3.2 | 8.0 | 0.00 | 1.93 | 0.00 | 61 | 1019.1 |
| 20260901163013 | 27 | 85 | 4.8 | 11.3 | 0.00 | 1.93 | 0.00 | 63 | 1019.1 |
| 20260901162528 | 27 | 91 | 4.8 | 11.3 | 0.00 | 1.93 | 0.00 | 64 | 1019.1 |
| 20260901162024 | 27 | 107 | 4.8 | 11.3 | 0.00 | 1.93 | 0.00 | 63 | 1019.1 |
| 20260901161519 | 26 | 98 | 6.4 | 9.7 | 0.00 | 1.93 | 0.00 | 64 | 1019.2 |
| 20260901161014 | 26 | 79 | 4.8 | 11.3 | 0.00 | 1.93 | 0.00 | 65 | 1019.2 |
| 20260901160529 | 26 | 75 | 6.4 | 11.3 | 0.00 | 1.93 | 0.00 | 65 | 1019.2 |
| 20260901160036 | 26 | 65 | 6.4 | 11.3 | 0.00 | 1.93 | 0.00 | 65 | 1019.3 |
| 20260901155520 | 26 | 79 | 6.4 | 11.3 | 0.00 | 1.93 | 0.00 | 67 | 1019.3 |
| 20260901155015 | 26 | 71 | 4.8 | 11.3 | 0.00 | 1.93 | 0.00 | 67 | 1019.2 |
| 20260901154530 | 25 | 100 | 6.4 | 9.7 | 0.00 | 1.93 | 0.00 | 70 | 1019.1 |
| 20260901154025 | 25 | 107 | 4.8 | 12.9 | 0.00 | 1.93 | 0.00 | 69 | 1019.2 |
| 20260901153520 | 25 | 90 | 4.8 | 12.9 | 0.00 | 1.93 | 0.00 | 69 | 1019.2 |
| 20260901153016 | 25 | 102 | 6.4 | 11.3 | 0.00 | 1.93 | 0.00 | 69 | 1019.2 |
| 20260901152512 | 25 | 124 | 6.4 | 12.9 | 0.00 | 1.93 | 0.00 | 71 | 1019.2 |
| 20260901152031 | 25 | 137 | 6.4 | 12.9 | 0.00 | 1.93 | 0.00 | 70 | 1019.2 |
| 20260901151526 | 25 | 148 | 3.2 | 14.5 | 0.00 | 1.93 | 0.00 | 73 | 1019.2 |
| 20260901151021 | 24 | 159 | 8.0 | 14.5 | 0.00 | 1.93 | 0.00 | 72 | 1019.2 |
| 20260901150517 | 24 | 133 | 8.0 | 12.9 | 0.00 | 1.93 | 0.00 | 72 | 1019.2 |
| 20260901150027 | 24 | 142 | 4.8 | 12.9 | 0.00 | 1.93 | 0.00 | 74 | 1019.2 |
| 20260901145527 | 23 | 99 | 8.0 | 16.1 | 0.00 | 1.93 | 0.00 | 74 | 1019.2 |
| 20260901145022 | 23 | 110 | 8.0 | 16.1 | 0.00 | 1.93 | 0.00 | 74 | 1019.3 |
| 20260901144522 | 23 | 123 | 6.4 | 14.5 | 0.00 | 1.93 | 0.00 | 74 | 1019.2 |
| 20260901144016 | 23 | 192 | 3.2 | 14.5 | 0.00 | 1.93 | 0.00 | 76 | 1019.2 |
| 20260901143513 | 23 | 159 | 6.4 | 12.9 | 0.00 | 1.93 | 0.00 | 74 | 1019.2 |
| 20260901143027 | 23 | 127 | 3.2 | 6.4 | 0.00 | 1.93 | 0.00 | 77 | 1019.2 |
| 20260901142523 | 23 | 127 | 3.2 | 8.0 | 0.00 | 1.93 | 0.00 | 77 | 1019.2 |
| 20260901142018 | 23 | 127 | 4.8 | 8.0 | 0.00 | 1.93 | 0.00 | 78 | 1019.1 |
| 20260901141513 | 22 | 131 | 3.2 | 6.4 | 0.00 | 1.93 | 0.00 | 79 | 1019.0 |
| 20260901141013 | 22 | 131 | 3.2 | 6.4 | 0.00 | 1.93 | 0.00 | 80 | 1019.0 |
| 20260901140528 | 22 | 132 | 3.2 | 4.8 | 0.00 | 1.93 | 0.00 | 80 | 1018.9 |
| 20260901140036 | 22 | 132 | 1.6 | 3.2 | 0.00 | 1.93 | 0.00 | 81 | 1018.9 |
| 20260901135517 | 22 | 132 | 0.0 | 1.6 | 0.00 | 1.96 | 0.00 | 82 | 1018.7 |
| 20260901135013 | 22 | 132 | 0.0 | 0.0 | 0.00 | 1.96 | 0.00 | 83 | 1018.6 |
| 20260901134528 | 22 | 132 | 0.0 | 0.0 | 0.00 | 1.96 | 0.00 | 84 | 1018.7 |
| 20260901134024 | 22 | 132 | 0.0 | 0.0 | 0.00 | 1.96 | 0.00 | 85 | 1018.7 |
| 20260901133519 | 21 | 132 | 0.0 | 0.0 | 0.00 | 1.96 | 0.00 | 86 | 1018.7 |
| 20260901133019 | 21 | 132 | 0.0 | 0.0 | 0.00 | 1.96 | 0.00 | 86 | 1018.7 |
| 20260901132513 | 21 | 132 | 0.0 | 0.0 | 0.00 | 1.96 | 0.00 | 86 | 1018.4 |
| 20260901132028 | 21 | 132 | 0.0 | 0.0 | 0.00 | 1.96 | 0.00 | 87 | 1018.5 |
| 20260901131524 | 20 | 132 | 0.0 | 0.0 | 0.00 | 1.96 | 0.00 | 87 | 1018.5 |
| 20260901131019 | 20 | 132 | 0.0 | 0.0 | 0.00 | 1.96 | 0.00 | 87 | 1018.5 |
| 20260901130513 | 20 | 132 | 0.0 | 0.0 | 0.00 | 1.96 | 0.00 | 87 | 1018.4 |
| 20260901130041 | 20 | 132 | 0.0 | 0.0 | 0.00 | 1.96 | 0.00 | 87 | 1018.3 |
| 20260901125526 | 21 | 132 | 0.0 | 0.0 | 0.00 | 2.79 | 0.00 | 86 | 1018.3 |
| 20260901125020 | 21 | 132 | 0.0 | 0.0 | 0.00 | 2.79 | 0.00 | 86 | 1018.0 |
| 20260901124516 | 21 | 132 | 0.0 | 0.0 | 0.00 | 2.79 | 0.00 | 86 | 1017.9 |
| 20260901124031 | 21 | 132 | 0.0 | 0.0 | 0.00 | 2.79 | 0.00 | 86 | 1017.8 |
| 20260901123527 | 21 | 132 | 0.0 | 0.0 | 0.00 | 2.79 | 0.00 | 86 | 1017.8 |
| 20260901123023 | 21 | 132 | 0.0 | 0.0 | 0.00 | 2.79 | 0.00 | 85 | 1017.7 |
| 20260901122518 | 21 | 132 | 0.0 | 0.0 | 0.00 | 2.79 | 0.00 | 85 | 1017.7 |
| 20260901122018 | 21 | 132 | 0.0 | 0.0 | 0.00 | 2.79 | 0.00 | 85 | 1017.7 |
| 20260901121513 | 21 | 132 | 0.0 | 4.8 | 0.00 | 2.79 | 0.00 | 85 | 1017.7 |
| 20260901121028 | 21 | 132 | 1.6 | 4.8 | 0.00 | 2.79 | 0.00 | 85 | 1017.7 |
| 20260901120524 | 21 | 132 | 1.6 | 3.2 | 0.00 | 2.79 | 0.00 | 85 | 1017.7 |
| 20260901120032 | 21 | 132 | 1.6 | 6.4 | 0.00 | 2.79 | 0.00 | 85 | 1017.6 |
| 20260901115532 | 21 | 132 | 1.6 | 6.4 | 0.00 | 3.17 | 0.00 | 84 | 1017.6 |
| 20260901115027 | 21 | 132 | 3.2 | 6.4 | 0.00 | 3.17 | 0.00 | 84 | 1017.5 |
| 20260901114521 | 21 | 133 | 3.2 | 6.4 | 0.00 | 3.17 | 0.00 | 84 | 1017.5 |
| 20260901114020 | 21 | 133 | 3.2 | 6.4 | 0.00 | 3.17 | 0.00 | 84 | 1017.5 |
| 20260901113515 | 21 | 133 | 3.2 | 6.4 | 0.00 | 3.17 | 0.00 | 84 | 1017.5 |
| 20260901113030 | 21 | 134 | 3.2 | 6.4 | 0.00 | 3.17 | 0.00 | 84 | 1017.6 |
| 20260901112524 | 21 | 135 | 3.2 | 6.4 | 0.00 | 3.17 | 0.00 | 84 | 1017.6 |
| 20260901112019 | 21 | 136 | 4.8 | 6.4 | 0.00 | 3.17 | 0.00 | 84 | 1017.6 |
| 20260901111514 | 21 | 137 | 4.8 | 6.4 | 0.00 | 3.17 | 0.00 | 84 | 1017.5 |
| 20260901111030 | 21 | 137 | 4.8 | 6.4 | 0.00 | 3.17 | 0.00 | 84 | 1017.6 |
| 20260901110528 | 21 | 138 | 3.2 | 6.4 | 0.00 | 3.17 | 0.00 | 84 | 1017.5 |
| 20260901110040 | 21 | 139 | 3.2 | 6.4 | 0.00 | 3.17 | 0.00 | 84 | 1017.6 |
| 20260901105522 | 21 | 140 | 3.2 | 6.4 | 0.00 | 3.17 | 0.00 | 84 | 1017.6 |
| 20260901105016 | 21 | 140 | 1.6 | 4.8 | 0.00 | 3.17 | 0.00 | 83 | 1017.5 |
| 20260901104531 | 21 | 140 | 1.6 | 4.8 | 0.00 | 3.17 | 0.00 | 83 | 1017.5 |
| 20260901104026 | 21 | 140 | 1.6 | 4.8 | 0.00 | 3.17 | 0.00 | 82 | 1017.5 |
| 20260901103522 | 21 | 140 | 3.2 | 4.8 | 0.00 | 3.17 | 0.00 | 81 | 1017.5 |
| 20260901103017 | 22 | 141 | 1.6 | 4.8 | 0.00 | 3.17 | 0.00 | 81 | 1017.5 |
| 20260901102517 | 22 | 141 | 1.6 | 8.0 | 0.00 | 3.17 | 0.00 | 81 | 1017.4 |
| 20260901102013 | 22 | 141 | 3.2 | 8.0 | 0.00 | 3.17 | 0.00 | 81 | 1017.4 |
| 20260901101527 | 22 | 142 | 3.2 | 6.4 | 0.00 | 3.17 | 0.00 | 81 | 1017.2 |
| 20260901101023 | 22 | 143 | 3.2 | 4.8 | 0.00 | 3.17 | 0.00 | 81 | 1017.3 |
| 20260901100518 | 22 | 143 | 3.2 | 4.8 | 0.00 | 3.17 | 0.00 | 81 | 1017.2 |
| 20260901100045 | 22 | 144 | 1.6 | 4.8 | 0.00 | 3.17 | 0.00 | 80 | 1017.1 |
| 20260901095525 | 22 | 144 | 1.6 | 6.4 | 0.00 | 3.17 | 0.00 | 80 | 1017.2 |
| 20260901095023 | 22 | 144 | 1.6 | 6.4 | 0.00 | 3.17 | 0.00 | 81 | 1017.3 |
| 20260901094517 | 22 | 144 | 3.2 | 6.4 | 0.00 | 3.17 | 0.00 | 80 | 1017.3 |
| 20260901094011 | 22 | 146 | 3.2 | 6.4 | 0.00 | 3.17 | 0.00 | 78 | 1017.2 |
| 20260901093526 | 22 | 146 | 3.2 | 6.4 | 0.00 | 3.17 | 0.00 | 78 | 1017.2 |
| 20260901093020 | 22 | 148 | 3.2 | 6.4 | 0.00 | 3.17 | 0.00 | 78 | 1017.1 |
| 20260901092514 | 22 | 148 | 1.6 | 6.4 | 0.00 | 3.17 | 0.00 | 77 | 1017.2 |
| 20260901092028 | 22 | 148 | 1.6 | 3.2 | 0.00 | 3.17 | 0.00 | 78 | 1017.2 |
| 20260901091522 | 22 | 148 | 1.6 | 3.2 | 0.00 | 3.17 | 0.00 | 78 | 1017.2 |
| 20260901091021 | 22 | 148 | 0.0 | 4.8 | 0.00 | 3.17 | 0.00 | 79 | 1017.3 |
| 20260901090515 | 22 | 148 | 3.2 | 4.8 | 0.00 | 3.17 | 0.00 | 79 | 1017.3 |
| 20260901090042 | 22 | 148 | 3.2 | 4.8 | 0.00 | 3.17 | 0.00 | 79 | 1017.3 |
| 20260901085522 | 22 | 148 | 0.0 | 3.2 | 0.00 | 3.17 | 0.00 | 78 | 1017.3 |
| 20260901085016 | 22 | 148 | 0.0 | 3.2 | 0.00 | 3.17 | 0.00 | 78 | 1017.3 |
| 20260901084530 | 22 | 148 | 1.6 | 4.8 | 0.00 | 3.17 | 0.00 | 77 | 1017.3 |
| 20260901084025 | 22 | 148 | 1.6 | 4.8 | 0.00 | 3.17 | 0.00 | 77 | 1017.3 |
| 20260901083524 | 22 | 148 | 1.6 | 4.8 | 0.00 | 3.17 | 0.00 | 78 | 1017.3 |
| 20260901083018 | 22 | 148 | 1.6 | 4.8 | 0.00 | 3.17 | 0.00 | 77 | 1017.2 |
| 20260901082512 | 22 | 148 | 3.2 | 8.0 | 0.00 | 3.17 | 0.00 | 77 | 1017.3 |
| 20260901082027 | 22 | 148 | 3.2 | 8.0 | 0.00 | 3.17 | 0.00 | 77 | 1017.2 |
| 20260901081521 | 22 | 148 | 1.6 | 4.8 | 0.00 | 3.17 | 0.00 | 77 | 1017.4 |
| 20260901081016 | 22 | 148 | 3.2 | 4.8 | 0.00 | 3.17 | 0.00 | 76 | 1017.3 |
| 20260901080531 | 23 | 147 | 1.6 | 6.4 | 0.00 | 3.17 | 0.00 | 76 | 1017.5 |
| 20260901080038 | 22 | 147 | 1.6 | 6.4 | 0.00 | 3.17 | 0.00 | 76 | 1017.5 |
| 20260901075522 | 22 | 147 | 3.2 | 6.4 | 0.00 | 3.17 | 0.00 | 76 | 1017.4 |
| 20260901075017 | 22 | 147 | 3.2 | 4.8 | 0.00 | 3.17 | 0.00 | 77 | 1017.5 |
| 20260901074512 | 22 | 146 | 3.2 | 4.8 | 0.00 | 3.17 | 0.00 | 77 | 1017.4 |
| 20260901074026 | 22 | 146 | 1.6 | 3.2 | 0.00 | 3.17 | 0.00 | 77 | 1017.6 |
| 20260901073521 | 22 | 146 | 1.6 | 3.2 | 0.00 | 3.17 | 0.00 | 77 | 1017.6 |
| 20260901073015 | 22 | 146 | 0.0 | 4.8 | 0.00 | 3.17 | 0.00 | 76 | 1017.5 |
| 20260901072529 | 23 | 146 | 1.6 | 4.8 | 0.00 | 3.17 | 0.00 | 76 | 1017.6 |
| 20260901072028 | 23 | 146 | 1.6 | 4.8 | 0.00 | 3.17 | 0.00 | 75 | 1017.6 |
| 20260901071522 | 23 | 146 | 1.6 | 6.4 | 0.00 | 3.17 | 0.00 | 75 | 1017.6 |
| 20260901071016 | 23 | 146 | 3.2 | 6.4 | 0.00 | 3.17 | 0.00 | 74 | 1017.6 |
| 20260901070530 | 23 | 146 | 3.2 | 8.0 | 0.00 | 3.17 | 0.00 | 74 | 1017.5 |
| 20260901070037 | 23 | 146 | 3.2 | 8.0 | 0.00 | 3.17 | 0.00 | 74 | 1017.6 |
| 20260901065517 | 23 | 147 | 4.8 | 9.7 | 0.00 | 3.17 | 3.17 | 74 | 1017.5 |
| 20260901065012 | 23 | 140 | 4.8 | 9.7 | 0.00 | 3.17 | 3.17 | 74 | 1017.5 |
| 20260901064527 | 23 | 142 | 4.8 | 8.0 | 0.00 | 3.17 | 3.17 | 74 | 1017.6 |
| 20260901064025 | 23 | 142 | 3.2 | 8.0 | 0.00 | 3.17 | 3.17 | 74 | 1017.7 |
| 20260901063520 | 23 | 144 | 3.2 | 8.0 | 0.00 | 3.17 | 3.17 | 75 | 1017.7 |
| 20260901063014 | 23 | 148 | 4.8 | 9.7 | 0.00 | 3.17 | 3.17 | 76 | 1017.8 |
| 20260901062529 | 23 | 151 | 3.2 | 9.7 | 0.00 | 3.17 | 3.17 | 75 | 1017.8 |
| 20260901062023 | 23 | 159 | 4.8 | 9.7 | 0.00 | 3.17 | 3.17 | 75 | 1017.7 |
| 20260901061518 | 23 | 116 | 3.2 | 9.7 | 0.00 | 3.17 | 3.17 | 76 | 1017.9 |
| 20260901061012 | 23 | 115 | 4.8 | 9.7 | 0.00 | 3.17 | 3.17 | 76 | 1017.9 |
| 20260901060531 | 23 | 114 | 4.8 | 6.4 | 0.00 | 3.17 | 3.17 | 77 | 1017.8 |
| 20260901060036 | 23 | 113 | 3.2 | 6.4 | 0.00 | 3.17 | 3.17 | 77 | 1017.7 |
| 20260901055517 | 23 | 109 | 3.2 | 6.4 | 0.00 | 3.17 | 3.17 | 78 | 1017.7 |
| 20260901055031 | 23 | 109 | 3.2 | 6.4 | 0.00 | 3.17 | 3.17 | 78 | 1017.7 |
| 20260901054525 | 23 | 109 | 1.6 | 4.8 | 0.00 | 3.17 | 3.17 | 78 | 1017.7 |
| 20260901054020 | 23 | 109 | 3.2 | 4.8 | 0.00 | 3.17 | 3.17 | 77 | 1017.8 |
| 20260901053514 | 23 | 109 | 3.2 | 4.8 | 0.00 | 3.17 | 3.17 | 76 | 1017.7 |
| 20260901053013 | 23 | 109 | 3.2 | 8.0 | 0.00 | 3.17 | 3.17 | 77 | 1017.5 |
| 20260901052527 | 23 | 109 | 4.8 | 8.0 | 0.00 | 3.17 | 3.17 | 77 | 1017.5 |
| 20260901052021 | 23 | 106 | 4.8 | 8.0 | 0.00 | 3.17 | 3.17 | 77 | 1017.5 |
| 20260901051516 | 23 | 101 | 3.2 | 4.8 | 0.00 | 3.17 | 3.17 | 77 | 1017.6 |
| 20260901051031 | 23 | 101 | 3.2 | 4.8 | 0.00 | 3.17 | 3.17 | 77 | 1017.7 |
| 20260901050525 | 24 | 101 | 3.2 | 4.8 | 0.00 | 3.17 | 3.17 | 77 | 1017.7 |
| 20260901050032 | 24 | 101 | 3.2 | 6.4 | 0.00 | 3.17 | 3.17 | 76 | 1017.7 |
| 20260901045511 | 24 | 101 | 3.2 | 8.0 | 0.00 | 3.17 | 3.17 | 75 | 1017.8 |
| 20260901045030 | 24 | 101 | 4.8 | 8.0 | 0.00 | 3.17 | 3.17 | 75 | 1017.9 |
| 20260901044524 | 24 | 100 | 4.8 | 8.0 | 0.00 | 3.17 | 3.17 | 76 | 1017.9 |
| 20260901044019 | 24 | 99 | 3.2 | 6.4 | 0.00 | 3.17 | 3.17 | 76 | 1017.8 |
| 20260901043512 | 24 | 98 | 3.2 | 4.8 | 0.00 | 3.17 | 3.17 | 76 | 1017.9 |
| 20260901043026 | 24 | 98 | 3.2 | 6.4 | 0.00 | 3.17 | 3.17 | 76 | 1017.8 |
| 20260901042521 | 24 | 99 | 4.8 | 6.4 | 0.00 | 3.17 | 3.17 | 76 | 1017.6 |
| 20260901041520 | 24 | 99 | 3.2 | 4.8 | 0.00 | 3.17 | 3.17 | 76 | 1017.5 |
| 20260901041014 | 24 | 99 | 1.6 | 4.8 | 0.00 | 3.17 | 3.17 | 75 | 1017.5 |
| 20260901040528 | 24 | 99 | 1.6 | 4.8 | 0.00 | 3.17 | 3.17 | 75 | 1017.5 |
| 20260901040036 | 24 | 99 | 1.6 | 4.8 | 0.00 | 3.17 | 3.17 | 74 | 1017.5 |
| 20260901035517 | 24 | 99 | 1.6 | 4.8 | 0.00 | 3.17 | 3.17 | 75 | 1017.7 |
| 20260901035031 | 24 | 99 | 1.6 | 3.2 | 0.00 | 3.17 | 3.17 | 75 | 1017.5 |
| 20260901034525 | 23 | 99 | 1.6 | 3.2 | 0.00 | 3.17 | 3.17 | 78 | 1017.4 |
| 20260901034020 | 23 | 99 | 1.6 | 3.2 | 0.00 | 3.17 | 3.17 | 79 | 1017.4 |
| 20260901033518 | 24 | 99 | 0.0 | 0.0 | 0.00 | 3.17 | 3.17 | 77 | 1017.5 |
| 20260901033033 | 24 | 99 | 0.0 | 3.2 | 0.00 | 3.17 | 3.17 | 75 | 1017.4 |
| 20260901032527 | 23 | 99 | 1.6 | 3.2 | 0.00 | 3.17 | 3.17 | 77 | 1017.3 |
| 20260901032021 | 23 | 99 | 1.6 | 3.2 | 0.00 | 3.17 | 3.17 | 79 | 1017.2 |
| 20260901031515 | 24 | 99 | 1.6 | 3.2 | 0.00 | 3.17 | 3.17 | 78 | 1017.2 |
| 20260901031029 | 24 | 99 | 0.0 | 1.6 | 0.00 | 3.17 | 3.17 | 75 | 1017.1 |
| 20260901030524 | 24 | 99 | 0.0 | 1.6 | 0.00 | 3.17 | 3.17 | 74 | 1017.1 |
| 20260901030034 | 24 | 99 | 1.6 | 3.2 | 0.00 | 3.17 | 3.17 | 74 | 1017.0 |
| 20260901025534 | 25 | 99 | 0.0 | 3.2 | 0.00 | 3.17 | 3.17 | 74 | 1017.0 |
| 20260901025029 | 24 | 99 | 0.0 | 3.2 | 0.00 | 3.17 | 3.17 | 74 | 1016.9 |
| 20260901024524 | 24 | 99 | 1.6 | 3.2 | 0.00 | 3.17 | 3.17 | 74 | 1017.0 |
| 20260901024018 | 25 | 99 | 0.0 | 3.2 | 0.00 | 3.17 | 3.17 | 73 | 1016.7 |
| 20260901023533 | 25 | 99 | 1.6 | 3.2 | 0.00 | 3.17 | 3.17 | 72 | 1016.7 |
| 20260901023027 | 25 | 99 | 1.6 | 4.8 | 0.00 | 3.17 | 3.17 | 70 | 1016.6 |
| 20260901022522 | 25 | 99 | 3.2 | 4.8 | 0.00 | 3.17 | 3.17 | 70 | 1016.4 |
| 20260901022022 | 25 | 99 | 0.0 | 3.2 | 0.00 | 3.17 | 3.17 | 70 | 1016.4 |
| 20260901021518 | 25 | 99 | 1.6 | 3.2 | 0.00 | 3.17 | 3.17 | 70 | 1016.5 |
| 20260901021033 | 25 | 99 | 1.6 | 4.8 | 0.00 | 3.17 | 3.17 | 69 | 1016.4 |
| 20260901020528 | 25 | 99 | 1.6 | 4.8 | 0.00 | 3.17 | 3.17 | 69 | 1016.0 |
| 20260901020035 | 25 | 99 | 1.6 | 3.2 | 0.00 | 3.17 | 3.17 | 69 | 1016.0 |
| 20260901015515 | 25 | 99 | 1.6 | 3.2 | 0.00 | 3.17 | 3.17 | 68 | 1016.0 |
| 20260901015030 | 25 | 99 | 1.6 | 3.2 | 0.00 | 3.17 | 3.17 | 69 | 1016.0 |